Worcester, MA

9:30 PM EDT on September 26, 2016 (GMT -0400)
Worcester Regional

Weather History for KORH - March, 2015

Change the Weather History Date:

Thursday, March 12, 2015

  Actual Average Record
Temperature  
Mean Temperature 31 °F 33 °F  
Max Temperature 38 °F 41 °F 68 °F (2012)
Min Temperature 24 °F 25 °F 2 °F (1948)
Degree Days  
Heating Degree Days 34 32  
Month to date heating degree days 438 401  
Since 1 July heating degree days 5552 5238  
Cooling Degree Days 0 0  
Month to date cooling degree days 0 0  
Year to date cooling degree days 0 0  
Moisture  
Dew Point 8 °F    
Average Humidity 41    
Maximum Humidity 59    
Minimum Humidity 22    
Precipitation  
Precipitation 0.00 in 0.13 in 2.31 in (1936)
Month to date precipitation 0.93 1.52  
Year to date precipitation 9.24 8.24  
Sea Level Pressure  
Sea Level Pressure 30.28 in    
Wind  
Wind Speed 15 mph (NW)    
Max Wind Speed 29 mph    
Max Gust Speed 39 mph    
Visibility 10 miles    
Events      
T = Trace of Precipitation, MM = Missing Value Source: NWS Daily Summary

Daily Weather History Graph

Daily Weather History Graph

Search for Another Location

Airport or City:

Trip Planner

Search our weather history database for the weather conditions in past years. The results will help you decide how hot, cold, wet, or windy it might be!

Date:

Astronomy

Mar. 12, 2015 Rise Set
Actual Time 7:04 AM EDT 6:50 PM EDT
Civil Twilight 6:37 AM EDT 7:18 PM EDT
Nautical Twilight 6:04 AM EDT 7:50 PM EDT
Astronomical Twilight 5:31 AM EDT 8:23 PM EDT
Moon 12:38 AM EDT (3/12) 10:49 AM EDT (3/12)
Length of Visible Light 12h 41m
Length of Day
11h 45m
Waning Gibbous, 61% of the Moon is Illuminated
Mar 12
Waning Gibbous
Mar 13
Last Quarter
Mar 20
New
Mar 27
First Quarter
Apr 4
Full

Hourly Weather History & Observations

Time (EDT) Temp. Windchill Dew Point Humidity Pressure Visibility Wind Dir Wind Speed Gust Speed Precip Events Conditions
12:54 AM 37.9 °F 27.9 °F 21.9 °F 53% 29.95 in 10.0 mi West 19.6 mph 28.8 mph N/A   Clear
1:54 AM 37.0 °F 27.7 °F 23.0 °F 57% 29.96 in 10.0 mi West 16.1 mph - N/A   Clear
2:54 AM 37.0 °F 27.0 °F 23.0 °F 57% 29.96 in 10.0 mi WNW 18.4 mph 28.8 mph N/A   Clear
3:54 AM 37.0 °F 26.4 °F 24.1 °F 59% 29.96 in 10.0 mi WNW 20.7 mph 27.6 mph N/A   Mostly Cloudy
4:54 AM 37.0 °F 27.4 °F 23.0 °F 57% 30.00 in 10.0 mi WNW 17.3 mph 33.4 mph N/A   Clear
5:54 AM 37.0 °F 27.0 °F 18.0 °F 46% 30.06 in 10.0 mi NNW 18.4 mph 28.8 mph N/A   Mostly Cloudy
6:54 AM 30.9 °F 20.7 °F 18.0 °F 59% 30.16 in 10.0 mi NNW 13.8 mph 26.5 mph N/A   Clear
7:54 AM 30.0 °F 19.5 °F 12.9 °F 49% 30.22 in 10.0 mi North 13.8 mph 26.5 mph N/A   Scattered Clouds
8:54 AM 30.0 °F 19.5 °F 8.1 °F 40% 30.27 in 10.0 mi NNW 13.8 mph - N/A   Clear
9:54 AM 30.9 °F 18.1 °F 6.1 °F 35% 30.29 in 10.0 mi NNW 21.9 mph 29.9 mph N/A   Clear
10:54 AM 32.0 °F 20.8 °F 7.0 °F 35% 30.31 in 10.0 mi NNW 17.3 mph 27.6 mph N/A   Clear
11:54 AM 33.1 °F 20.3 °F 5.0 °F 31% 30.32 in 10.0 mi NW 24.2 mph 33.4 mph N/A   Clear
12:54 PM 34.0 °F 22.7 °F 3.0 °F 27% 30.34 in 10.0 mi NNW 19.6 mph 33.4 mph N/A   Clear
1:54 PM 35.1 °F 25.2 °F 5.0 °F 28% 30.34 in 10.0 mi NNW 16.1 mph 25.3 mph N/A   Clear
2:54 PM 35.1 °F 23.5 °F 1.0 °F 24% 30.34 in 10.0 mi NW 21.9 mph 32.2 mph N/A   Clear
3:54 PM 35.6 °F 25.9 °F -0.4 °F 22% 30.33 in 10.0 mi NNW 16.1 mph 33.4 mph N/A   Clear
4:54 PM 35.1 °F 23.3 °F -0.9 °F 22% 30.39 in 10.0 mi NNW 23.0 mph 32.2 mph N/A   Clear
5:54 PM 34.0 °F 27.2 °F -0.9 °F 23% 30.41 in 10.0 mi NNW 8.1 mph 20.7 mph N/A   Clear
6:54 PM 30.9 °F 22.8 °F -0.9 °F 26% 30.46 in 10.0 mi NNW 9.2 mph - N/A   Clear
7:54 PM 30.0 °F 25.2 °F -0.9 °F 27% 30.49 in 10.0 mi NNW 4.6 mph - N/A   Clear
8:54 PM 28.0 °F 20.8 °F 1.0 °F 31% 30.51 in 10.0 mi NNW 6.9 mph - N/A   Clear
9:54 PM 28.0 °F 19.3 °F 1.0 °F 31% 30.53 in 10.0 mi NNW 9.2 mph - N/A   Clear
10:54 PM 26.1 °F 17.6 °F 1.0 °F 34% 30.53 in 10.0 mi NNW 8.1 mph - N/A   Clear
11:54 PM 25.0 °F 15.5 °F 1.0 °F 36% 30.54 in 10.0 mi NNW 9.2 mph - N/A   Clear